Location: Krasnoyarskiy Pitomnik
(51.1333°N, 71.6167°E)
Time: 09:04:58
(UTC+00:00)

OBJECT-B - Pass Details

Date: 22 October 2021
Orbit: 406 x 416 km, 96.9° (Epoch: 24 October)

Event Time Altitude Azimuth Distance (km) Brightness Sun altitude
Exits shadow 13:57:37 12° 15° (NNE) 1,402 3.3 -18.1°
Drops below altitude 10° 13:57:59 - 11° (NNE) 1,531 3.5 -18.1°
Sets 14:00:07 0° 358° (N) 2,364 4.6 -18.5°
